Über Starlink 3004
Group: 3 satellites
Beschreibung wird geladen...
Live-Position
3D-Globus wird geladen...
Nächste Überflüge
Höhenverlauf
Altitude vs Time
uPlot chart will show altitude changes over time
Zweizeiliger Elementsatz
1 48880U 21059B 26035.29603744 .00000643 00000-0 54656-4 0 9999
2 48880 97.6609 162.3638 0001186 93.3145 266.8215 15.01259539253793
Epoch: 4. Feb. 2026 •
Age: 6 hours
Aktueller Status
Höhe 565.4 km
Geschwindigkeit 7.58 km/s
Subsatellitenpunkt 20.01°N,
178.78°W
Startdatum 30. Juni 2021
Alter 4.5 years
Typ internet
Technische Details
Klassifizierung Payload
Masse 260.00 kg
Trockenmasse 248.00 kg
Gesamtmasse 260.00 kg
Länge 0.20 m
Durchmesser 2.80 m
Spannweite 9.00 m
Form Box + pan
Hersteller SPXS
Bus-Typ Starlink
Phasenstatus In Orbit
Besitzer/Staat SPXS/US
Große Konstellationen
Loading constellations...